Weather observations for the past three days for
Fort Hood, Hood AAF Ft Hood
Imperial (Metric)
Date Time (cdt) Wind (mph) Vis. (mi.) Weather Sky Cond. Temperature (ºF) Relative Humidity Wind Chill (°F) Heat Index (°F) Pressure Precipitation (in)
Air Dwpt 6 hour altimeter (in) sea level (mb) 1 hr 3 hr 6 hr
Max. Min.
10 12:55 S 9 G 18 10.00 A Few Clouds FEW028 86.4 70.3 86.5 68.2 59% 91 29.93 1012.5
10 11:55 S 9 10.00 Fair CLR 82.9 70 65% 87 29.94 1012.9
10 10:55 SE 12 10.00 A Few Clouds FEW014 79.3 69.1 71% 82 29.95 1013.3
10 09:55 SE 10 10.00 Partly Cloudy SCT013 77.2 68.5 75% 79 29.95 1013.3
10 08:55 E 10 10.00 Fair CLR 74.3 67.6 80% 29.94 1012.9
10 07:55 E 9 10.00 Fair CLR 71.4 66.9 86% 29.91 1011.8
10 06:55 SE 7 10.00 Fair CLR 68 64.9 74.5 68 90% 29.87 1010.5
10 05:55 S 6 10.00 Fair CLR 69.3 65.5 88% 29.84 1009.4
10 04:55 S 7 10.00 Fair CLR 71.2 66.2 84% 29.83 1009.0
10 03:55 S 8 10.00 Fair CLR 73 66.4 80% 29.82 1008.7
10 02:55 S 12 10.00 Fair CLR 73.4 66 78% 29.82 1008.7
10 01:55 S 8 10.00 Fair CLR 74.1 66.4 77% 29.83 1009.0
10 00:55 SE 8 10.00 Fair CLR 74.1 67.8 89.1 73.9 81% 29.83 1009.1
09 23:55 S 8 10.00 Fair CLR 75.6 68.9 80% 76 29.82 1008.8
09 22:55 SE 8 10.00 Fair CLR 76.1 69.1 79% 77 29.83 1009.1
09 21:55 S 7 10.00 Fair CLR 77.5 68.5 74% 79 29.81 1008.5
09 20:55 SE 8 10.00 Fair CLR 80.8 67.5 64% 83 29.79 1007.8
09 19:55 SE 8 10.00 Fair CLR 85.5 65.1 51% 87 29.76 1006.8
09 18:55 SE 3 10.00 Fair CLR 89.1 66.2 91.4 85.1 47% 92 29.76 1006.8
09 17:55 E 5 10.00 A Few Clouds FEW065 88.5 64.9 46% 90 29.75 1006.4
09 16:55 SE 5 10.00 Fair CLR 91 64.8 42% 93 29.76 1006.7
09 15:55 W 3 10.00 Fair CLR 88.7 63.3 43% 90 29.77 1007.1
09 14:55 W 5 10.00 Fair CLR 89.1 63.5 43% 90 29.8 1008.1
09 13:55 SW 3 10.00 A Few Clouds FEW300 86.7 63.3 46% 88 29.83 1009.2
09 12:55 N 5 10.00 A Few Clouds FEW350 85.3 66.2 85.8 66.2 53% 88 29.85 1009.8
09 11:55 E 6 10.00 Fair CLR 83.5 67.6 59% 86 29.86 1010.2
09 10:55 N 10 10.00 Fair CLR 81.1 64.9 58% 83 29.86 1010.2
09 09:55 NE 7 10.00 Fair CLR 77 70.3 80% 79 29.86 1010.3
09 08:55 N 8 10.00 A Few Clouds FEW008 72.7 69.6 90% 29.83 1009.3
09 07:55 SW 10 5.00 Fog/Mist BKN002 68.7 67.8 97% 29.79 1008.0
09 06:55 S 6 5.00 Fog/Mist CLR 66 65.1 70.2 65.5 97% 29.79 1008.0
09 05:55 W 6 7.00 Overcast BKN004 OVC009 67.8 66.9 97% 29.86 1010.4
09 04:55 N 6 6.00 Fog/Mist FEW011 BKN080 67.8 66.9 97% 29.86 1010.4
09 03:55 N 5 5.00 Fog/Mist BKN009 67.6 66.7 97% 29.85 1010.1
09 02:55 Calm 6.00 Fog/Mist FEW011 68 66.7 96% 29.85 1010.1
09 01:55 Calm 9.00 Mostly Cloudy FEW034 BKN047 69.1 67.5 95% 29.84 1009.7
09 00:55 Calm 10.00 Overcast FEW013 OVC020 70.2 68.4 73.4 67.6 94% 29.83 1009.4
08 23:55 E 5 8.00 Mostly Cloudy BKN015 68.9 67.5 95% 29.82 1009.1
08 22:55 Calm 10.00 Fair CLR 68.7 66.2 92% 29.82 0.0
08 21:55 Calm 10.00 Fair CLR 70.5 67.6 91% 29.79 1008.1
08 20:55 Calm 9.00 Fair CLR 71.2 68.2 90% 29.78 1007.7
08 19:55 SE 9 9.00 Mostly Cloudy BKN065 73.2 68 84% 29.77 1007.5
08 18:55 SE 10 9.00 Overcast OVC065 73.6 67.6 73.9 68.5 82% 29.78 1007.8
08 17:55 SE 9 9.00 Mostly Cloudy FEW014 BKN060 73.4 66.7 80% 29.79 1008.2
08 16:55 E 7 10.00 Mostly Cloudy SCT011 BKN060 73.2 66.2 79% 29.8 1008.5
08 15:55 SE 6 10.00 Overcast OVC010 71.2 65.8 83% 29.83 1009.5
08 14:55 SE 7 10.00 Overcast OVC009 70.3 64.9 83% 29.85 1010.3
08 13:55 E 6 10.00 Overcast OVC009 68.7 64.4 86% 29.86 1010.6
08 12:55 E 3 10.00 Overcast OVC010 68.9 63.1 69.3 59.2 82% 29.88 1011.3
08 11:55 SE 5 9.00 Overcast OVC013 68 61.9 81% 29.91 1012.3
08 09:55 S 7 9.00 Mostly Cloudy BKN013 67.6 59.7 76% 29.92 1012.7
08 08:55 Calm 9.00 Overcast OVC015 62.8 57.6 83% 29.94 1013.4
08 07:55 Calm 10.00 Overcast OVC018 60.4 57.6 90% 29.94 1013.4
08 06:55 Calm 9.00 Partly Cloudy SCT025 59.2 57.2 60.6 57.4 93% 29.93 1013.1
08 05:55 SE 3 10.00 Thunderstorm in Vicinity BKN021 OVC030 60.4 55.9 85% 29.95 1013.7
08 04:55 NE 3 10.00 Overcast OVC022 59.9 57 90% 29.96 1014.0
08 03:55 N 3 10.00 Overcast OVC025 60.3 56.7 88% 29.96 1014.1
08 02:55 NE 6 10.00 Overcast OVC021 59.9 56.3 88% 29.94 1013.3
08 01:55 Calm 10.00 Partly Cloudy SCT260 59 56.1 90% 29.96 1014.1
08 00:55 Calm 10.00 Fair CLR 58.3 55.6 65.5 58.3 91% 29.97 1014.5
07 23:55 NW 3 10.00 Partly Cloudy SCT240 60.1 56.5 88% 29.99 1015.1
07 22:55 Calm 10.00 Fair CLR 59.9 56.7 89% 29.99 1015.2
07 21:55 N 3 10.00 Fair CLR 61.7 55.8 81% 29.97 1014.4
07 20:55 NE 6 10.00 A Few Clouds FEW230 63 54.5 74% 29.94 1013.5
07 19:55 E 5 9.00 Partly Cloudy FEW110 SCT230 64.4 53.6 68% 29.95 1013.8
07 18:55 Calm 7.00 Fair CLR 65.7 53.1 67.1 63.1 64% 29.98 1014.8
07 17:55 NE 7 8.00 Mostly Cloudy SCT110 BKN190 66.6 53.1 62% 29.98 1014.8
07 16:55 NE 7 9.00 Partly Cloudy FEW110 SCT150 SCT170 SCT200 67.1 53.2 61% 30 1015.4
07 15:55 N 7 8.00 Mostly Cloudy BKN110 BKN130 65.1 51.8 62% 30.03 1016.5
07 14:55 N 8 10.00 Partly Cloudy FEW095 SCT120 SCT250 SCT280 SCT330 66.2 52 60% 30.04 1016.8
07 13:55 NE 7 10.00 Fair CLR 63.5 51.1 64% 30.04 1016.9
Date Time (cdt) Wind (mph) Vis. (mi.) Weather Sky Cond. Air Dwpt Max. Min. Relative Humidity Wind Chill (°F) Heat Index (°F) altimeter (in) sea level (mb) 1 hr 3 hr 6 hr
6 hour
Temperature (ºF) Pressure Precipitation (in)